Hourly Data Report for May 09, 2012

All times are specified in Local Standard Time (LST). Add 1 hour to adjust for Daylight Saving Time where and when it is observed.

HAMILTON A
ONTARIO

43°10'25.000" N
79°56'06.000" W
237.70 m
6153193
71263
YHM

Download Data

Hourly Data (May 2012)
Hourly Data Report for May 9, 2012
Temp Definition
°C
Dew Point Temp Definition
°C
Rel Hum Definition
%
Wind Dir Definition
10's deg

Wind Spd Definition
km/h
Visibility Definition
km
Stn Press Definition
kPa
Hmdx Definition


Wind Chill Definition


Weather Definition


TIME
00:00 12.1 11.0 93 25 13 10.0 98.05     LegendNANA
01:00 12.2 11.4 95 24 8 8.1 98.00     Rain Showers,Fog
02:00 11.9 11.6 98 25 8 6.4 97.91     Rain Showers,Fog
03:00 11.9 11.8 99 23 14 0.4 97.93     Rain Showers,Fog
04:00 11.1 11.1 100 25 12 0.4 97.90     Rain Showers,Fog
05:00 9.9 9.9 100 25 13 3.2 97.91     Fog
06:00 10.1 9.7 97 25 14 8.1 97.94     Fog
07:00 11.4 10.0 91 25 14 10.0 97.97     Mostly Cloudy
08:00 13.3 10.5 83 25 14 10.0 97.96     LegendNANA
09:00 15.8 10.4 70 25 15 10.0 97.94     LegendNANA
10:00 17.2 9.2 59 22 15 10.0 97.90     Mostly Cloudy
11:00 19.2 8.9 51 22 25 10.0 97.83     LegendNANA
12:00 19.8 10.3 54 22 22 10.0 97.74     LegendNANA
13:00 12.8 7.1 68 29 24 10.0 97.79     Mostly Cloudy
14:00 13.1 9.2 77 23 14 10.0 97.76     Rain Showers
15:00 13.5 9.2 75 23 29 10.0 97.74     Rain Showers
16:00 15.3 8.1 62 27 31 10.0 97.71     Mostly Cloudy
17:00 14.5 8.1 65 29 24 10.0 97.75     LegendNANA
18:00 13.1 7.6 69 29 22 10.0 97.79     LegendNANA
19:00 11.8 6.6 70 32 23 10.0 97.83     Mostly Cloudy
20:00 10.8 5.8 71 32 24 10.0 97.89     LegendNANA
21:00 9.7 6.4 80 30 14 10.0 97.96     LegendNANA
22:00 9.0 6.1 82 32 14 10.0 97.99     Mostly Cloudy
23:00 8.4 5.7 83 30 11 10.0 97.98     LegendNANA

Notes on Data Quality.

Legend

  • E = Estimated
  • M = Missing
  • NA = Not Available
Date modified: